Inquirer Daily News

Weather

Get conditions and forecasts for any City, State, ZIP code or Country:  
Northeast Philadelphia, PA
on Friday, November 9, 2012

Friday
Previous Day Next Day
Daily Summary
 ActualAverage (KTTN)Record (KTTN)
Temperature
Mean Temperature °F 48°F  
Max Temperature 55°F 57°F 78°F (1975)
Min Temperature 33°F 39°F 22°F (1992)
Degree Days
Heating Degree Days 21 17  
Month to date heating degree days 145  
Since 1 July heating degree days 542  
Cooling Degree Days 0 0  
Month to date cooling degree days 0  
Year to date cooling degree days 965  
Moisture
Dew Point 27°F   
Average Humidity 53    
Maximum Humidity 79    
Minimum Humidity 35    
Precipitation
Precipitation 0.00 in 0.12 in 1.15 in (1926)
Month to date precipitation 0.97  
Year to date precipitation 40.40  
Wind
Wind Speed 8 mph   
Max Wind Speed 17 mph   
Max Gust Speed 26 mph   
Visibility 10 miles   
Events     

Key: T is trace of precipitation, MM is missing value
Source: NWS Daily Summary
Time(EST)TemperatureDew PointHumidity Pressure Visibility Wind DirectionWind SpeedGust SpeedPrecipitationEvents Conditions
12:54 AM 36.0°F 21.0°F 55% 30.01 in 10.0 miles NNW 6.9 mph - N/A   Clear
1:54 AM 37.0°F 23.0°F 57% 30.02 in 10.0 miles NW 8.1 mph - N/A   Clear
2:54 AM 36.0°F 24.1°F 62% 30.04 in 10.0 miles Variable 3.5 mph - N/A   Clear
3:54 AM 33.1°F 23.0°F 66% 30.05 in 10.0 miles West 4.6 mph - N/A   Clear
4:54 AM 34.0°F 21.9°F 61% 30.06 in 10.0 miles WNW 4.6 mph - N/A   Clear
5:54 AM 35.1°F 21.0°F 57% 30.08 in 10.0 miles WNW 8.1 mph - N/A   Clear
6:54 AM 35.1°F 21.0°F 57% 30.10 in 10.0 miles NW 6.9 mph - N/A   Clear
7:54 AM 39.0°F 24.1°F 55% 30.12 in 10.0 miles NW 10.4 mph - N/A   Clear
8:54 AM 43.0°F 27.0°F 53% 30.13 in 10.0 miles NW 16.1 mph 20.7 mph N/A   Clear
9:54 AM 46.0°F 26.1°F 46% 30.14 in 10.0 miles NNW 17.3 mph 26.5 mph N/A   Clear
10:54 AM 50.0°F 26.1°F 39% 30.15 in 10.0 miles NNW 12.7 mph - N/A   Clear
11:54 AM 52.0°F 25.0°F 35% 30.14 in - NNW 13.8 mph 20.7 mph N/A   Clear
12:54 PM 52.0°F 27.0°F 38% 30.13 in 10.0 miles NW 13.8 mph - N/A   Clear
1:54 PM 53.1°F 28.0°F 38% 30.12 in 10.0 miles WNW 13.8 mph 20.7 mph N/A   Clear
2:54 PM 55.0°F 28.9°F 37% 30.12 in 10.0 miles NW 9.2 mph 21.9 mph N/A   Clear
3:09 PM 55.4°F 28.4°F 36% 30.12 in - NNW 11.5 mph - N/A   Unknown
3:54 PM 53.1°F 28.9°F 40% 30.13 in 10.0 miles WNW 9.2 mph - N/A   Clear
4:54 PM 51.1°F 28.9°F 43% 30.14 in 10.0 miles WNW 6.9 mph - N/A   Clear
5:54 PM 46.0°F 30.0°F 54% 30.17 in 10.0 miles West 4.6 mph - N/A   Clear
6:54 PM 46.9°F 30.0°F 52% 30.19 in 10.0 miles WNW 4.6 mph - N/A   Clear
7:54 PM 46.9°F 30.9°F 54% 30.22 in 10.0 miles Calm Calm - N/A   Clear
8:54 PM 42.1°F 30.9°F 65% 30.22 in 10.0 miles Calm Calm - N/A   Clear
9:54 PM 41.0°F 32.0°F 70% 30.23 in 9.0 miles NNW 4.6 mph - N/A   Clear
10:54 PM 37.9°F 32.0°F 79% 30.24 in 10.0 miles Calm Calm - N/A   Clear
11:54 PM 37.9°F 32.0°F 79% 30.25 in 10.0 miles Calm Calm - N/A   Clear
Astronomy
Sunrise:06:38 AM (EST) Moon Rise:01:35 AM (EST)11/9
Sunset:04:48 PM (EST) Moon Set:02:00 PM (EST)11/9
Moon Phase
Nov. 09 Nov. 13 Nov. 20 Nov. 28 Dec. 06

Copyright © 2014 The Weather Underground, Inc.